Weather History for Kenosha, WI

Change the Weather History Date:

Monday, March 25, 2013

  Actual Average Record
Temperature  
Mean Temperature 32 °F -  
Max Temperature 35 °F 43 °F 78 °F (2007)
Min Temperature 30 °F 27 °F 5 °F (1960)
Degree Days  
Heating Degree Days 32    
Moisture  
Dew Point 25 °F    
Average Humidity 72    
Maximum Humidity 82    
Minimum Humidity 64    
Precipitation  
Precipitation 0.00 in - - ()
Sea Level Pressure  
Sea Level Pressure 29.89 in    
Wind  
Wind Speed 14 mph (North)    
Max Wind Speed 23 mph    
Max Gust Speed 32 mph    
Visibility 9 miles    
Events Snow    
Averages and records for this station are not official NWS values.
T = Trace of Precipitation, MM = Missing Value Source: NWS Daily Summary

Daily Weather History Graph

Daily Weather History Graph

Search for Another Location

Airport:

Trip Planner

Search our weather history database for the weather conditions in past years. The results will help you decide how hot, cold, wet, or windy it might be!

Date:

Astronomy

Mar. 25, 2013 Rise Set
Actual Time 6:45 AM CDT 7:10 PM CDT
Civil Twilight 6:17 AM CDT 7:38 PM CDT
Nautical Twilight 5:44 AM CDT 8:11 PM CDT
Astronomical Twilight 5:10 AM CDT 8:45 PM CDT
Moon 5:40 PM CDT (3/25) 5:30 AM CDT (3/25)
Length of Visible Light 13h 20m
Length of Day
12h 24m
Waxing Gibbous, 96% of the Moon is Illuminated
Mar 25
Waxing Gibbous
Mar 27
Full
Apr 2
Last Quarter
Apr 10
New
Apr 18
First Quarter

Hourly Weather History & Observations

Time (CDT) Temp. Windchill Dew Point Humidity Pressure Visibility Wind Dir Wind Speed Gust Speed Precip Events Conditions
12:53 AM 33.1 °F 20.6 °F 24.1 °F 70% 29.76 in 10.0 mi NNE 23.0 mph 32.2 mph N/A   Overcast
1:53 AM 30.9 °F 19.8 °F 24.1 °F 76% 29.76 in 10.0 mi North 16.1 mph 27.6 mph N/A   Overcast
2:36 AM 30.2 °F 20.8 °F 23.0 °F 75% 29.74 in 10.0 mi NNE 11.5 mph 21.9 mph N/A   Overcast
2:53 AM 32.0 °F 20.5 °F 21.0 °F 64% 29.75 in 10.0 mi NNE 18.4 mph 26.5 mph N/A   Overcast
3:53 AM 32.0 °F 20.8 °F 21.0 °F 64% 29.75 in 10.0 mi NE 17.3 mph 25.3 mph N/A   Overcast
4:53 AM 32.0 °F 23.0 °F 21.9 °F 66% 29.75 in 10.0 mi NNE 11.5 mph 18.4 mph N/A   Overcast
5:53 AM 30.9 °F 21.2 °F 25.0 °F 79% 29.77 in 10.0 mi North 12.7 mph - N/A   Overcast
6:46 AM 30.2 °F 21.3 °F 24.8 °F 80% 29.75 in 10.0 mi North 10.4 mph - N/A   Overcast
6:53 AM 30.9 °F 21.7 °F 25.0 °F 79% 29.78 in 10.0 mi North 11.5 mph 18.4 mph N/A   Overcast
7:53 AM 32.0 °F 21.6 °F 26.1 °F 79% 29.81 in 10.0 mi North 15.0 mph 20.7 mph N/A   Overcast
8:53 AM 32.0 °F 22.1 °F 27.0 °F 82% 29.83 in 6.0 mi North 13.8 mph - N/A   Haze
9:00 AM 33.8 °F 24.8 °F 26.6 °F 75% 29.80 in 6.0 mi North 12.7 mph - N/A   Haze
9:26 AM 33.8 °F 25.8 °F 26.6 °F 75% 29.81 in 10.0 mi North 10.4 mph - N/A   Overcast
9:53 AM 33.1 °F 25.5 °F 26.1 °F 75% 29.85 in 9.0 mi North 9.2 mph - 0.00 in Snow Light Snow
10:53 AM 32.0 °F 22.1 °F 26.1 °F 79% 29.88 in 5.0 mi North 13.8 mph - 0.00 in Snow Light Snow
11:53 AM 33.1 °F 23.0 °F 27.0 °F 78% 29.90 in 6.0 mi North 15.0 mph - 0.00 in   Haze
12:53 PM 34.0 °F 24.2 °F 27.0 °F 75% 29.90 in 10.0 mi North 15.0 mph 21.9 mph 0.00 in   Overcast
1:53 PM 35.1 °F 25.5 °F 26.1 °F 70% 29.91 in 9.0 mi NNE 15.0 mph - N/A   Overcast
2:53 PM 34.0 °F 24.2 °F 24.1 °F 67% 29.93 in 10.0 mi NNW 15.0 mph 20.7 mph N/A   Overcast
3:53 PM 34.0 °F 26.6 °F 24.1 °F 67% 29.95 in 10.0 mi North 9.2 mph - N/A   Overcast
4:53 PM 33.1 °F 24.4 °F 21.9 °F 64% 29.98 in 10.0 mi North 11.5 mph 21.9 mph N/A   Overcast
5:53 PM 33.1 °F 26.1 °F 21.9 °F 64% 30.00 in 10.0 mi North 8.1 mph - N/A   Overcast
6:53 PM 33.1 °F 27.7 °F 24.1 °F 70% 30.03 in 10.0 mi North 5.8 mph - N/A   Overcast
7:53 PM 33.1 °F 26.1 °F 23.0 °F 66% 30.05 in 10.0 mi NNW 8.1 mph - N/A   Overcast
8:13 PM 33.8 °F 27.0 °F 24.8 °F 70% 30.03 in 10.0 mi NNW 8.1 mph - N/A   Overcast
8:31 PM 33.8 °F 27.0 °F 24.8 °F 70% 30.03 in 10.0 mi NNW 8.1 mph - N/A   Overcast
8:53 PM 33.1 °F 24.9 °F 25.0 °F 72% 30.06 in 10.0 mi NW 10.4 mph - N/A   Overcast
9:53 PM 33.1 °F 25.5 °F 25.0 °F 72% 30.08 in 10.0 mi WNW 9.2 mph - N/A   Overcast
10:53 PM 33.1 °F 27.7 °F 24.1 °F 70% 30.09 in 10.0 mi NW 5.8 mph - N/A   Overcast
11:53 PM 33.1 °F 26.9 °F 24.1 °F 70% 30.09 in 10.0 mi NW 6.9 mph - N/A   Overcast